TimeMST,TemperatureF,Dew PointF,Humidity,Sea Level PressureIn,VisibilityMPH,Wind Direction,Wind SpeedMPH,Gust SpeedMPH,PrecipitationIn,Events,Conditions,WindDirDegrees,DateUTC
12:48 AM,12.0,8.1,84,30.20,-9999.0,East,5.8,-,N/A,,Unknown,80,2013-01-22 07:48:00
1:48 AM,12.9,8.1,81,30.19,-9999.0,ESE,4.6,-,N/A,,Unknown,110,2013-01-22 08:48:00
2:48 AM,12.0,8.1,84,30.19,-9999.0,East,4.6,-,N/A,,Unknown,90,2013-01-22 09:48:00
3:48 AM,6.1,3.0,87,30.20,-9999.0,Calm,Calm,-,N/A,,Unknown,0,2013-01-22 10:48:00
4:48 AM,6.1,1.9,83,30.20,-9999.0,West,4.6,-,N/A,,Unknown,280,2013-01-22 11:48:00
5:48 AM,5.0,1.9,87,30.21,-9999.0,Calm,Calm,-,N/A,,Unknown,0,2013-01-22 12:48:00
6:48 AM,3.9,1.0,88,30.22,-9999.0,WNW,4.6,-,N/A,,Unknown,290,2013-01-22 13:48:00
7:48 AM,3.0,-0.0,87,30.21,-9999.0,Calm,Calm,-,N/A,,Unknown,0,2013-01-22 14:48:00
8:48 AM,8.1,5.0,87,30.21,-9999.0,West,5.8,-,N/A,,Unknown,270,2013-01-22 15:48:00
9:48 AM,12.9,8.1,81,30.20,-9999.0,Calm,Calm,-,N/A,,Unknown,0,2013-01-22 16:48:00
10:48 AM,17.1,10.0,74,30.20,-9999.0,West,3.5,-,N/A,,Unknown,270,2013-01-22 17:48:00
11:48 AM,23.0,14.0,68,30.19,-9999.0,West,4.6,-,N/A,,Unknown,270,2013-01-22 18:48:00
12:48 PM,28.0,17.1,63,30.17,-9999.0,West,4.6,-,N/A,,Unknown,280,2013-01-22 19:48:00
1:48 PM,30.9,18.0,59,30.15,-9999.0,West,8.1,-,N/A,,Unknown,270,2013-01-22 20:48:00
2:48 PM,30.9,18.0,59,30.16,-9999.0,West,3.5,-,N/A,,Unknown,270,2013-01-22 21:48:00
3:48 PM,28.9,19.0,67,30.18,-9999.0,NW,3.5,-,N/A,,Unknown,320,2013-01-22 22:48:00
4:48 PM,24.1,17.1,75,30.20,-9999.0,NNE,6.9,-,N/A,,Unknown,30,2013-01-22 23:48:00
5:48 PM,19.0,14.0,81,30.22,-9999.0,East,5.8,-,N/A,,Unknown,90,2013-01-23 00:48:00
6:48 PM,18.0,12.9,81,30.23,-9999.0,East,5.8,-,N/A,,Unknown,90,2013-01-23 01:48:00
7:48 PM,16.0,10.9,81,30.25,-9999.0,Calm,Calm,-,N/A,,Unknown,0,2013-01-23 02:48:00
8:48 PM,17.1,10.9,77,30.26,-9999.0,Calm,Calm,-,N/A,,Unknown,0,2013-01-23 03:48:00
9:48 PM,17.1,10.9,77,30.27,-9999.0,NNE,3.5,-,N/A,,Unknown,20,2013-01-23 04:48:00
10:48 PM,16.0,10.0,77,30.28,-9999.0,NNE,4.6,-,N/A,,Unknown,30,2013-01-23 05:48:00
11:48 PM,15.1,10.0,80,30.29,-9999.0,Calm,Calm,-,N/A,,Unknown,0,2013-01-23 06:48:00